WESTFORD NEEDLES, 19946

Orbit data source: Space-Track

WESTFORD NEEDLES, 19946 is space debris in LEO originally from a launch on Thu, 09 May 1963 UTC launched from the Air Force Western Test Range (AFWTR). Debris objects in space refer to the collection of defunct objects orbiting the Earth. Examples of debris include non-operational satellites, rocket bodies, and fragments generated from explosions, collisions, or faulty payload assembly.

Loading next visibility...
Identifier
19946, 1963-014EU
Orbit
LEO
Country
Flag of USUS
Related business
Manufacturer
Unknown
Mission
Spacecraft
Bus & Motor
Unknown
Mass
Unknown
Launch date (UTC)
1963-05-09 (62 years ago)
Launch vehicle
Unknown
Launch site
Air Force Western Test Range (AFWTR)
Object type
Payload
Rocket body
Debris
Shape & HBR
Unknown shape, 0.2 m
Radar Cross Section
Medium (>0.1 m² and <1 m²)

Expand to show TLE details & history
Last TLE update: 1 day ago

TLE from 1 day ago
0 WESTFORD NEEDLES
1 19946U 63014EU  25286.60252877 -.00000518  00000-0 -22062+0 0  9990
2 19946  87.1865 347.5738 0374860 171.6808 350.4645  8.68405578167161
Epoch: 2025-10-13T14:27Z
TLE epoch observation values (Epoch: 2025-10-13T14:27:38.485Z)
Latitude
18.5735°
Longitude
-72.68182°
Altitude
3,252.534 km
Speed
6.553 km/s
True Right ascension
11h 06m 31s
True Declination
18° 29' 48"
Sunlit
Object was in daylight at epoch
Visualization orbit readout
Latitude
Unknown
Longitude
Unknown
Altitude
Unknown
Speed
Unknown
Apparent Right ascension
Unknown
Apparent Declination
Unknown
Sunlit
N/A
Visualization observer readout
Local Sidereal Time
09:00:43
Azimuth
Unknown
Elevation
Unknown
Doppler factor
Unknown
Orbital elements
Apogee altitude
3,992.548 km
Perigee altitude
3,243.13 km
Semi-major axis
9,995.976 km
Eccentricity
0.03749
Inclination
87.1865°
RAAN
347.5738°
Arg. of periapsis
171.6808°
True anomaly
349.71852°
Mean anomaly
350.4645°
Eccentric anomaly
350.09505°
Mean motion
2.17173 °/min
Orbital period
165.77 mins
BSTAR
-0.22062

Documentation

Showing up to 5 results
|